Estación de Morza

Ultimos registro cada 15 minutos 28
Estación Fecha / Hora Temperatura Humedad Lluvia Velocidad Dirección Radiación Presion
28 Morza 06-05-2026 06:45 6,8 95 0 0 182 0 1011,1
27 Morza 06-05-2026 06:30 6,7 94 0 0,4 201 0 1011,3
26 Morza 06-05-2026 06:15 6,9 94 0 0 210 0 1011,5
25 Morza 06-05-2026 06:00 7,3 95 0 0 210 0 1011,3
24 Morza 06-05-2026 05:45 7,2 95 0 0,4 182 0 1011,3
23 Morza 06-05-2026 05:30 6,9 93 0 0 182 0 1011,6
22 Morza 06-05-2026 05:15 7,4 93 0 0 234 0 1011,6
21 Morza 06-05-2026 05:00 8,2 95 0 0 121 0 1011,5
20 Morza 06-05-2026 04:45 8,2 95 0 0 227 0 1011,3
19 Morza 06-05-2026 04:30 8,3 94 0 0 282 0 1011,5
18 Morza 06-05-2026 04:15 8,6 94 0 1,8 288 0 1011,4
17 Morza 06-05-2026 04:00 9 94 0 0,4 94 0 1011,4
16 Morza 06-05-2026 03:45 9,4 94 0 0 146 0 1012,1
15 Morza 06-05-2026 03:30 9,8 95 0 0 150 0 1011,9
14 Morza 06-05-2026 03:15 9,7 95 0 0 143 0 1012,2
13 Morza 06-05-2026 03:00 9,3 95 0 0 160 0 1012,5
12 Morza 06-05-2026 02:45 9,1 94 0 0 292 0 1012,4
11 Morza 06-05-2026 02:30 9,2 94 0 0 182 0 1012,1
10 Morza 06-05-2026 02:15 9,2 94 0 0 192 0 1011,9
9 Morza 06-05-2026 02:00 9,3 92 0 0 192 0 1011,9
8 Morza 06-05-2026 01:45 9,7 93 0 0 209 0 1011,8
7 Morza 06-05-2026 01:30 10,1 93 0 0,4 172 0 1011,9
6 Morza 06-05-2026 01:15 10,2 94 0 0 107 0 1012
5 Morza 06-05-2026 01:00 10,2 93 0 0 186 0 1012,2
4 Morza 06-05-2026 00:45 10,3 93 0 0 182 0 1012,4
3 Morza 06-05-2026 00:30 10,3 93 0 0 223 0 1012,5
2 Morza 06-05-2026 00:15 10,4 92 0 0 228 0 1012,7
1 Morza 06-05-2026 00:00 10,6 92 0 0 228 0 1012,6